TimeCST,TemperatureF,Dew PointF,Humidity,Sea Level PressureIn,VisibilityMPH,Wind Direction,Wind SpeedMPH,Gust SpeedMPH,PrecipitationIn,Events,Conditions,WindDirDegrees,DateUTC
12:56 AM,51.1,46.9,86,30.21,8.0,SSE,3.5,-,N/A,,Partly Cloudy,160,2012-12-04 06:56:00
1:19 AM,53.6,50.0,88,30.22,1.8,Calm,Calm,-,N/A,,Partly Cloudy,0,2012-12-04 07:19:00
1:25 AM,50.0,46.4,87,30.22,1.0,Calm,Calm,-,N/A,,Mist,0,2012-12-04 07:25:00
1:33 AM,51.8,46.4,82,30.22,0.8,Calm,Calm,-,N/A,,Mist,0,2012-12-04 07:33:00
1:45 AM,51.8,48.2,88,30.22,1.2,Calm,Calm,-,N/A,,Overcast,0,2012-12-04 07:45:00
1:47 AM,51.8,48.2,88,30.22,2.0,Calm,Calm,-,N/A,,Overcast,0,2012-12-04 07:47:00
1:56 AM,52.0,48.0,86,30.22,1.8,Calm,Calm,-,N/A,,Overcast,0,2012-12-04 07:56:00
2:02 AM,51.8,46.4,82,30.23,0.8,Calm,Calm,-,N/A,,Mist,0,2012-12-04 08:02:00
2:12 AM,50.0,46.4,87,30.22,0.2,Calm,Calm,-,N/A,Fog,Fog,0,2012-12-04 08:12:00
2:46 AM,50.0,46.4,87,30.22,0.5,East,3.5,-,N/A,Fog,Fog,90,2012-12-04 08:46:00
2:56 AM,50.0,46.0,86,30.21,0.8,Calm,Calm,-,N/A,,Mist,0,2012-12-04 08:56:00
3:12 AM,50.0,46.4,87,30.22,1.2,Calm,Calm,-,N/A,,Overcast,0,2012-12-04 09:12:00
3:15 AM,50.0,46.4,87,30.22,2.5,Calm,Calm,-,N/A,,Mostly Cloudy,0,2012-12-04 09:15:00
3:22 AM,51.8,46.4,82,30.22,4.0,Calm,Calm,-,N/A,,Mostly Cloudy,0,2012-12-04 09:22:00
3:25 AM,51.8,46.4,82,30.22,1.5,Calm,Calm,-,N/A,,Mostly Cloudy,0,2012-12-04 09:25:00
3:32 AM,50.0,46.4,87,30.23,1.2,Calm,Calm,-,N/A,,Mostly Cloudy,0,2012-12-04 09:32:00
3:36 AM,51.8,46.4,82,30.22,2.0,Calm,Calm,-,N/A,,Overcast,0,2012-12-04 09:36:00
3:49 AM,50.0,46.4,87,30.23,1.2,Calm,Calm,-,N/A,,Overcast,0,2012-12-04 09:49:00
3:51 AM,50.0,46.4,87,30.22,0.8,Calm,Calm,-,N/A,,Mist,0,2012-12-04 09:51:00
3:56 AM,50.0,46.0,86,30.22,0.5,Calm,Calm,-,N/A,Fog,Fog,0,2012-12-04 09:56:00
4:04 AM,50.0,46.4,87,30.23,1.8,Calm,Calm,-,N/A,,Overcast,0,2012-12-04 10:04:00
4:06 AM,50.0,46.4,87,30.23,3.0,Calm,Calm,-,N/A,,Overcast,0,2012-12-04 10:06:00
4:13 AM,48.2,44.6,87,30.23,2.0,Calm,Calm,-,N/A,,Overcast,0,2012-12-04 10:13:00
4:21 AM,50.0,46.4,87,30.23,6.0,Calm,Calm,-,N/A,,Mostly Cloudy,0,2012-12-04 10:21:00
4:38 AM,51.8,46.4,82,30.23,2.0,Calm,Calm,-,N/A,,Haze,0,2012-12-04 10:38:00
4:41 AM,50.0,46.4,87,30.23,1.2,Calm,Calm,-,N/A,,Mostly Cloudy,0,2012-12-04 10:41:00
4:49 AM,50.0,46.4,87,30.23,2.0,Calm,Calm,-,N/A,,Mostly Cloudy,0,2012-12-04 10:49:00
4:56 AM,50.0,46.0,86,30.23,0.8,Calm,Calm,-,N/A,,Mist,0,2012-12-04 10:56:00
5:06 AM,50.0,46.4,87,30.24,0.2,SE,3.5,-,N/A,Fog,Fog,140,2012-12-04 11:06:00
5:13 AM,50.0,46.4,87,30.24,0.8,Calm,Calm,-,N/A,,Mist,0,2012-12-04 11:13:00
5:21 AM,50.0,46.4,87,30.24,1.2,Calm,Calm,-,N/A,,Mostly Cloudy,0,2012-12-04 11:21:00
5:28 AM,50.0,44.6,82,30.24,2.0,Calm,Calm,-,N/A,,Haze,0,2012-12-04 11:28:00
5:37 AM,50.0,46.4,87,30.25,4.0,Calm,Calm,-,N/A,,Mostly Cloudy,0,2012-12-04 11:37:00
5:43 AM,50.0,46.4,87,30.25,1.8,Calm,Calm,-,N/A,,Mostly Cloudy,0,2012-12-04 11:43:00
5:53 AM,50.0,46.4,87,30.26,3.0,East,3.5,-,N/A,,Overcast,100,2012-12-04 11:53:00
5:56 AM,48.9,46.0,90,30.25,2.5,East,3.5,-,N/A,,Overcast,100,2012-12-04 11:56:00
5:58 AM,50.0,46.4,87,30.26,1.0,ESE,3.5,-,N/A,,Mist,110,2012-12-04 11:58:00
6:02 AM,51.8,46.4,82,30.26,0.2,ESE,3.5,-,N/A,Fog,Fog,110,2012-12-04 12:02:00
6:17 AM,51.8,48.2,88,30.26,0.2,ESE,3.5,-,0.00,Fog-Rain,Light Rain,120,2012-12-04 12:17:00
6:28 AM,53.6,48.2,82,30.26,0.2,SE,3.5,-,0.00,Fog-Rain,Light Rain,130,2012-12-04 12:28:00
6:56 AM,53.1,50.0,89,30.27,0.2,ESE,3.5,-,0.01,Fog-Rain,Light Rain,110,2012-12-04 12:56:00
7:56 AM,57.0,53.1,87,30.27,0.2,SE,4.6,-,0.00,Fog-Rain,Light Rain,140,2012-12-04 13:56:00
8:09 AM,57.2,53.6,88,30.28,1.0,SE,4.6,-,0.00,Rain,Light Rain,130,2012-12-04 14:09:00
8:11 AM,57.2,53.6,88,30.28,1.5,SE,4.6,-,0.00,Rain,Light Rain,140,2012-12-04 14:11:00
8:17 AM,59.0,55.4,88,30.28,3.0,SE,3.5,-,0.00,Rain,Light Rain,130,2012-12-04 14:17:00
8:34 AM,60.8,57.2,88,30.29,8.0,SSE,4.6,-,0.00,,Scattered Clouds,150,2012-12-04 14:34:00
8:56 AM,63.0,59.0,87,30.29,10.0,Variable,4.6,-,0.00,,Clear,0,2012-12-04 14:56:00
9:56 AM,71.1,61.0,70,30.29,10.0,SW,5.8,-,N/A,,Clear,230,2012-12-04 15:56:00
10:56 AM,75.0,60.1,60,30.26,10.0,South,8.1,-,N/A,,Clear,190,2012-12-04 16:56:00
11:56 AM,79.0,57.0,47,30.24,10.0,Variable,4.6,-,N/A,,Scattered Clouds,0,2012-12-04 17:56:00
12:56 PM,77.0,55.9,48,30.22,10.0,Calm,Calm,-,N/A,,Mostly Cloudy,0,2012-12-04 18:56:00
1:56 PM,79.0,52.0,39,30.20,10.0,South,6.9,-,N/A,,Partly Cloudy,170,2012-12-04 19:56:00
2:56 PM,79.0,54.0,42,30.19,10.0,SSE,3.5,-,N/A,,Partly Cloudy,150,2012-12-04 20:56:00
3:56 PM,75.9,54.0,46,30.20,10.0,SW,8.1,-,N/A,,Overcast,220,2012-12-04 21:56:00
4:56 PM,72.0,55.0,55,30.19,10.0,SSW,3.5,-,N/A,,Clear,200,2012-12-04 22:56:00
5:56 PM,66.0,55.9,70,30.20,10.0,Calm,Calm,-,N/A,,Clear,0,2012-12-04 23:56:00
6:56 PM,64.0,55.9,75,30.21,10.0,Calm,Calm,-,N/A,,Clear,0,2012-12-05 00:56:00
7:56 PM,64.0,55.9,75,30.22,10.0,Calm,Calm,-,N/A,,Clear,0,2012-12-05 01:56:00
8:56 PM,62.1,57.0,84,30.21,10.0,Calm,Calm,-,N/A,,Clear,0,2012-12-05 02:56:00
9:56 PM,60.1,55.0,83,30.21,8.0,Calm,Calm,-,N/A,,Clear,0,2012-12-05 03:56:00
10:56 PM,57.9,54.0,87,30.20,8.0,Calm,Calm,-,N/A,,Clear,0,2012-12-05 04:56:00
11:42 PM,55.4,51.8,88,30.19,4.0,ESE,3.5,-,N/A,,Partly Cloudy,120,2012-12-05 05:42:00
11:56 PM,57.0,53.1,87,30.18,6.0,Calm,Calm,-,N/A,,Partly Cloudy,0,2012-12-05 05:56:00